Wind_Speed
6 5 4 5 3 3 3 4 2 2 2 1 2 2 2 2 3 2 3 10 11 19 17 14 12 11 9 7 6 6 7 7 7 7 7 7 7 7 8 9 9 8 8 7 7 7 7 7 8
5 2 4 2 3 1 4 3 4 4 2 3 2 2 1 2 1 2 8 7 16 20 17 14 12 10 9 7 6 7 7 7 6 6 6 7 7 8 9 9 9 9 9 9 9 8 8 7 6
2 4 3 4 3 4 4 4 3 2 3 3 1 1 3 1 1 7 4 14 20 19 15 13 12 11 10 8 7 7 8 7 6 5 6 7 7 8 8 9 9 9 8 9 9 9 9 8 9
1 6 4 3 5 6 4 3 4 1 1 2 1 1 0 1 1 3 13 17 20 19 16 14 13 11 10 9 10 9 7 6 5 5 6 7 7 7 8 8 9 10 10 10 10 10 10 9 10
6 3 3 1 5 5 5 4 2 4 2 2 3 1 2 1 3 9 20 19 21 18 16 15 13 11 10 9 9 8 7 6 5 6 7 8 8 9 9 9 10 10 10 10 10 10 10 11 11
4 3 3 3 5 5 5 5 3 3 1 1 2 3 2 2 8 14 18 19 17 17 16 15 13 11 9 9 8 7 6 4 4 5 6 7 8 9 10 10 11 11 10 10 10 11 12 12 11
5 4 4 3 4 5 4 4 3 4 2 4 2 2 1 3 7 17 18 18 16 16 17 15 13 12 10 9 8 6 4 2 3 3 6 7 9 10 11 12 11 11 11 12 11 11 11 12 12
4 4 3 4 4 5 0 1 0 3 3 1 4 3 2 4 16 19 18 17 16 16 16 15 13 12 10 8 6 4 2 1 1 4 6 9 11 12 11 11 11 12 12 13 13 12 12 12 12
3 3 3 5 7 4 2 1 1 2 2 3 3 1 1 16 21 20 18 16 17 17 16 15 14 12 10 8 7 5 3 1 2 4 7 10 13 12 11 10 10 11 11 12 12 12 13 15 15
3 4 9 4 4 3 1 1 2 2 2 3 3 3 6 20 22 19 17 16 19 20 18 16 14 12 11 9 7 5 3 1 2 5 8 11 12 11 9 9 9 9 10 12 12 12 13 14 15
4 5 3 3 4 2 2 2 2 2 5 9 6 4 6 12 14 15 17 22 25 22 19 18 15 13 11 9 7 5 3 1 2 5 8 10 10 9 10 9 10 11 13 15 14 13 14 15 15
2 6 4 3 1 1 3 3 4 7 7 3 7 3 7 10 12 17 18 22 22 23 20 18 17 15 13 11 8 6 3 1 2 5 7 8 9 9 9 10 12 14 16 16 16 16 16 16 14
4 4 4 5 5 5 1 7 6 9 12 8 6 5 8 10 13 15 19 20 20 23 22 20 18 16 14 11 9 6 4 2 2 4 6 7 8 8 9 11 13 14 15 17 18 19 20 17 11
4 3 5 6 6 4 5 4 2 6 0 1 4 9 7 9 16 13 17 20 23 22 23 20 18 16 14 11 9 6 4 1 2 4 4 6 7 8 9 12 13 12 15 17 18 18 19 15 13
0 4 5 7 4 6 6 7 10 6 3 8 7 6 8 8 15 19 24 24 25 23 22 22 19 16 14 12 9 7 4 1 1 2 3 5 5 7 9 11 12 12 13 16 15 17 16 16 14
1 2 1 1 6 2 5 9 3 3 6 8 5 6 6 8 15 21 22 23 23 23 24 23 21 18 15 12 9 7 4 2 0 1 3 4 5 6 9 11 12 13 14 16 14 15 15 16 15
2 4 5 6 6 3 4 6 2 2 3 3 4 5 6 6 6 12 19 25 25 25 26 25 23 21 18 14 11 8 5 3 2 1 2 3 5 6 9 11 13 12 14 14 13 13 15 17 16
6 4 4 5 2 3 3 13 12 7 6 10 8 7 7 8 9 9 12 20 23 25 27 26 24 21 19 16 12 8 5 4 2 1 2 3 4 6 8 10 12 14 14 13 14 11 12 16 11
4 4 3 3 1 3 6 10 15 10 6 9 10 8 9 8 4 5 10 17 22 24 28 28 27 23 21 19 14 8 6 5 4 2 2 2 4 6 9 10 12 13 12 11 12 13 12 14 14
2 3 4 4 1 3 5 13 13 8 7 7 7 7 7 5 4 4 13 20 25 28 29 29 27 24 21 16 12 6 7 6 5 4 3 1 3 4 7 9 10 12 11 10 12 12 10 9 16
3 5 3 4 3 1 6 8 5 2 3 3 3 3 2 7 7 5 9 18 23 28 31 30 27 23 19 15 12 9 8 5 6 5 3 1 1 3 6 7 8 10 9 9 11 10 8 6 7
6 8 7 4 1 4 2 5 6 3 6 5 5 4 5 5 5 4 7 15 24 27 29 28 25 22 18 14 12 10 6 6 6 6 4 2 1 2 5 7 7 9 8 7 7 9 8 6 7
5 3 7 2 1 4 1 2 7 1 6 8 8 7 6 7 8 9 9 16 22 26 27 25 23 20 17 14 11 9 7 7 7 6 5 3 2 2 4 6 7 8 7 5 3 5 8 7 7
8 6 6 4 3 2 7 7 5 5 8 3 4 7 8 7 7 6 12 18 21 22 23 23 22 19 17 15 11 9 7 8 8 6 4 3 2 1 3 6 7 8 7 5 2 3 5 6 7
3 6 2 3 2 6 3 2 7 7 5 4 8 9 8 7 7 8 9 13 20 22 22 22 21 19 17 15 12 9 7 8 7 6 4 3 2 2 2 5 6 7 7 5 3 5 6 6 5
7 8 6 7 4 3 2 7 7 4 6 3 6 8 7 7 6 8 9 15 21 23 22 22 21 19 17 14 12 9 8 8 8 6 5 3 2 1 1 4 5 5 5 5 3 4 6 5 6
6 7 6 7 2 2 5 7 10 6 5 5 6 7 9 8 8 8 8 17 22 23 23 23 21 18 17 14 12 11 10 9 8 7 5 3 2 1 1 3 4 4 4 4 2 5 6 6 8
5 8 4 2 3 4 4 5 6 5 10 7 8 8 7 7 7 7 8 17 22 23 22 21 20 19 17 15 13 12 11 10 9 8 7 4 3 2 1 2 3 3 3 3 2 5 8 6 7
4 3 2 4 5 5 1 6 8 10 8 14 10 9 9 8 8 8 8 17 22 20 20 21 20 19 17 16 15 14 12 11 10 9 8 5 5 3 2 2 2 3 3 2 1 3 6 7 9
2 3 7 5 7 2 3 7 1 5 5 8 8 7 6 6 8 7 9 16 18 20 20 21 20 20 18 16 16 14 12 11 12 11 10 8 6 5 3 2 2 3 3 3 3 4 6 7 11
Wind_Direction
332 340 344 27 51 60 259 251 261 266 246 246 126 151 185 175 172 203 169 168 151 156 157 172 181 151 151 138 123 105 89 82 74 67 62 56 46 41 30 24 21 17 10 3 352 344 334 353 342
346 10 52 79 91 56 263 251 230 229 226 137 132 100 129 239 105 119 129 159 152 158 157 170 177 158 134 121 109 96 92 86 78 68 58 46 38 29 24 18 13 10 6 3 358 349 335 306 313
15 53 80 90 109 200 219 214 229 253 245 197 144 38 142 237 107 169 154 147 150 151 155 170 176 148 138 138 134 122 113 109 98 76 54 39 29 22 20 13 8 3 3 356 349 344 338 323 289
60 25 44 93 228 253 217 193 210 241 271 247 145 262 17 65 98 180 157 150 155 156 155 168 167 151 148 144 130 122 115 103 85 63 41 30 25 20 13 8 7 357 349 346 344 338 331 327 321
54 56 74 65 253 262 249 248 209 194 215 209 178 211 215 100 163 155 158 159 162 159 158 165 164 152 143 133 129 128 122 111 84 53 39 29 23 12 6 1 352 352 350 344 341 337 333 326 316
52 96 75 229 244 259 271 229 172 213 220 219 190 150 207 173 157 153 156 159 165 160 160 164 165 156 149 142 141 134 127 108 68 46 30 10 358 352 346 349 352 352 349 343 339 335 329 323 319
119 99 210 221 255 296 239 147 197 187 176 240 173 162 140 179 165 153 154 158 161 162 164 166 167 164 166 162 156 151 138 94 62 16 8 360 352 345 339 338 347 351 345 343 340 338 335 328 320
108 94 163 239 207 261 262 266 263 164 233 352 181 229 220 169 159 155 156 158 161 165 170 170 171 174 173 169 168 166 147 141 44 1 356 350 348 345 347 351 352 353 351 350 346 341 334 328 324
141 70 223 238 168 239 354 263 307 298 306 316 217 170 118 152 157 155 153 157 165 172 176 178 179 178 177 177 177 175 178 158 360 355 350 349 349 353 356 357 352 349 347 346 341 336 328 322 319
108 151 219 212 203 243 229 206 277 18 23 271 283 104 133 161 166 164 171 169 175 179 181 184 184 182 180 185 185 185 185 192 1 349 350 352 354 356 4 0 4 356 351 344 335 334 332 327 323
166 205 230 264 233 229 262 255 211 185 258 221 216 209 162 176 183 181 186 186 185 185 186 186 187 186 187 189 188 187 185 192 5 352 350 356 0 1 5 8 3 360 352 348 345 343 344 342 330
204 232 219 292 284 164 248 310 270 200 231 198 204 199 165 186 197 194 193 194 189 189 191 189 188 188 189 191 190 189 189 197 340 348 353 5 6 7 19 9 7 359 359 3 4 358 350 344 339
204 236 179 244 265 256 321 255 252 257 245 254 248 198 203 192 203 207 206 203 198 196 194 194 192 191 191 192 194 190 190 205 337 354 2 12 18 30 18 12 6 10 18 13 8 359 351 345 343
195 226 259 261 235 231 220 230 148 265 161 195 207 227 215 195 195 197 206 205 203 202 197 193 195 194 195 196 195 191 185 222 344 359 15 17 21 21 21 16 17 26 17 8 9 6 355 356 352
289 310 306 225 223 226 174 273 231 232 212 283 251 238 226 220 194 204 210 210 205 204 197 194 193 194 196 195 191 185 188 199 347 13 20 22 33 24 17 18 24 19 8 11 14 9 12 15 14
275 64 284 198 158 223 159 263 259 7 179 247 265 223 229 225 226 220 223 219 210 201 197 192 190 190 190 193 187 186 190 206 25 80 29 43 30 21 21 17 14 13 14 6 13 16 28 34 24
353 243 213 310 192 145 186 265 249 86 68 285 278 255 239 228 229 236 228 219 206 199 193 188 188 185 184 184 184 184 186 189 161 98 71 59 32 23 21 18 11 15 19 7 22 33 33 22 22
206 225 246 255 204 206 217 262 275 266 262 263 262 253 231 231 242 269 216 200 201 195 191 185 182 181 179 176 176 178 184 185 169 144 108 62 36 25 25 20 23 17 18 10 32 26 21 20 21
141 189 242 238 253 237 234 269 273 279 249 261 258 240 238 239 234 200 181 176 179 184 182 181 178 179 179 171 167 179 193 193 178 155 123 59 35 28 26 29 30 18 19 17 38 26 18 18 22
150 171 238 271 214 202 318 282 262 246 246 216 247 248 244 178 163 154 160 165 173 175 179 178 179 179 181 181 179 180 183 195 186 181 152 89 32 36 30 23 26 19 21 17 39 35 25 15 17
242 213 239 234 335 219 325 286 286 268 239 213 229 248 230 184 167 164 156 163 169 173 177 177 179 180 181 183 181 175 162 161 187 192 177 156 44 30 30 21 22 22 25 24 41 35 29 12 7
233 206 212 230 59 242 1 282 293 259 269 226 215 194 189 168 145 158 161 162 169 174 175 176 176 179 183 187 187 186 181 173 185 184 169 155 76 32 21 21 18 21 19 25 36 45 41 40 35
222 139 179 157 204 355 254 291 268 300 271 232 211 199 188 185 172 171 170 166 169 168 171 173 175 179 183 187 193 191 180 169 169 182 172 153 123 51 16 20 23 15 5 14 24 52 23 37 57
155 87 58 64 89 292 199 188 255 197 215 209 184 188 185 181 174 159 162 164 163 167 169 172 176 179 183 185 191 193 185 177 172 186 177 162 134 56 14 26 37 10 4 24 38 64 43 69 77
127 116 5 356 10 228 344 272 261 260 229 219 194 189 189 180 170 162 158 162 166 172 174 176 178 180 183 183 186 192 186 181 182 189 183 173 131 110 17 31 43 13 13 28 78 77 61 83 100
187 166 163 194 201 233 63 229 244 238 242 193 171 172 167 181 182 179 176 172 176 178 181 181 181 182 186 186 186 188 186 184 186 194 195 185 173 127 32 31 50 31 14 27 99 81 83 88 103
195 210 156 107 55 53 214 284 288 221 231 200 166 159 179 184 188 187 177 182 184 185 187 187 185 185 190 189 188 190 190 188 190 195 206 194 190 146 92 36 56 47 38 32 56 86 99 112 117
167 158 94 13 153 247 265 280 247 251 223 200 200 196 188 180 179 186 185 188 192 192 191 191 192 190 191 192 193 194 192 187 189 195 207 200 192 171 149 75 58 51 65 59 74 103 112 107 126
151 183 175 137 162 184 227 255 218 225 200 198 200 191 184 181 181 184 188 194 194 192 192 194 193 193 194 196 196 196 192 190 192 195 204 207 193 189 184 128 84 99 94 112 165 125 129 123 128
16 185 176 174 217 244 145 262 295 269 265 186 183 178 179 177 179 179 179 182 186 191 191 196 197 199 201 201 200 197 192 195 198 196 200 202 202 198 202 165 127 134 124 151 176 169 146 153 137
Height
797 796 796 796 818 826 827 816 809 802 798 792 791 793 795 794 798 808 795 796 798 802 806 808 810 812 814 815 817 819 820 820 821 820 819 818 818 818 818 818 817 816 815 815 815 815 814 814 814
797 796 797 809 828 832 821 813 807 800 792 792 792 793 794 794 794 795 796 797 799 803 806 809 811 813 816 818 819 820 820 821 821 820 820 819 818 818 818 818 817 816 816 815 814 814 813 812 812
798 796 805 822 840 828 819 807 800 794 791 791 792 792 793 794 794 794 795 797 801 805 808 810 812 814 815 815 816 817 818 818 819 820 820 819 819 818 817 816 816 814 813 813 813 812 811 810 810
797 800 816 825 829 817 810 797 797 794 791 790 790 794 793 792 793 794 795 798 801 804 807 810 812 813 814 815 816 818 819 820 820 820 820 819 818 817 817 815 814 814 812 812 811 810 810 808 808
798 810 826 829 826 812 806 800 795 794 792 791 790 793 793 792 792 792 794 797 799 803 806 809 812 814 815 817 818 818 819 819 819 820 820 819 818 817 816 815 813 812 811 810 808 807 807 806 806
809 817 830 829 822 808 801 794 794 793 790 790 792 793 791 791 791 793 796 798 802 804 807 810 812 814 816 817 818 819 819 819 820 820 819 818 817 816 815 813 812 811 809 808 807 806 805 804 803
811 821 826 824 818 808 796 792 793 792 792 790 788 792 792 792 793 795 798 800 803 805 807 810 812 813 815 816 817 819 819 820 820 819 819 818 817 816 814 813 812 810 809 808 807 805 804 803 801
812 818 823 823 816 805 791 790 789 789 789 786 786 792 790 790 792 795 797 800 803 806 808 810 813 814 816 817 818 818 820 819 820 820 819 818 817 815 814 813 812 811 809 808 807 805 803 801 799
808 822 826 811 818 797 792 792 787 790 790 788 785 786 788 789 792 795 797 800 803 805 807 810 811 814 816 817 818 819 819 820 821 821 820 819 818 816 815 813 811 810 808 806 804 802 800 799 797
811 824 813 803 803 797 793 793 791 790 792 788 786 787 788 790 792 793 795 798 801 803 806 809 812 814 815 817 817 818 819 820 821 821 820 819 817 815 813 811 810 808 806 804 802 800 798 796 795
811 814 805 796 797 795 794 793 791 791 791 787 784 783 787 790 791 792 793 795 796 800 805 808 811 813 814 816 817 818 819 820 820 820 819 818 816 815 813 811 809 808 806 803 800 798 796 794 792
806 804 802 796 795 795 795 792 791 791 780 775 779 780 784 787 788 788 791 793 796 799 803 806 808 811 812 814 816 817 818 819 818 818 817 816 816 814 813 812 810 807 805 802 800 797 795 792 790
804 800 799 796 797 796 795 795 793 786 776 777 778 778 779 781 784 786 789 792 795 797 800 804 807 809 811 813 815 816 817 818 818 817 817 816 816 815 814 812 811 808 806 803 800 797 794 791 789
796 797 796 794 793 793 794 792 792 774 772 773 776 776 776 777 779 784 787 789 792 795 798 803 807 810 812 813 815 816 817 818 818 817 816 816 816 815 814 812 810 808 806 803 801 798 794 790 788
795 797 796 793 791 791 792 790 788 773 773 774 775 774 775 774 776 777 780 784 787 792 797 800 805 808 811 813 814 816 816 817 817 817 816 816 816 815 814 812 809 807 805 804 801 799 795 792 789
799 798 800 785 791 788 787 785 769 771 774 771 772 774 773 772 771 773 777 780 785 789 793 797 801 806 810 812 813 815 816 816 816 816 816 815 816 815 814 813 811 808 805 803 801 798 795 793 790
804 805 806 790 789 789 790 780 768 770 771 769 768 770 771 771 771 770 771 775 779 784 790 794 799 802 806 810 812 814 815 815 815 816 815 816 816 815 815 813 812 809 806 804 801 799 797 795 793
803 806 800 796 787 789 790 785 771 769 770 768 766 766 768 769 766 767 768 771 777 782 787 792 797 801 804 807 811 813 814 814 814 815 815 815 815 815 814 813 812 811 808 804 802 800 799 797 795
793 797 794 789 786 789 789 784 771 765 767 764 760 761 762 764 763 763 767 769 774 781 785 790 795 800 802 804 808 810 812 813 814 815 815 816 816 816 815 813 812 810 809 806 802 801 800 799 796
793 794 793 788 786 789 787 779 764 762 757 755 755 756 758 761 763 765 765 767 771 777 783 789 793 798 801 803 805 808 809 812 812 813 813 815 816 814 814 814 812 810 810 808 804 803 802 801 799
799 799 792 788 787 788 793 778 760 751 753 753 755 757 757 758 760 765 767 768 771 775 780 786 792 797 801 803 804 806 808 810 812 813 813 814 815 816 815 814 813 811 810 809 806 805 804 802 801
803 794 792 789 792 800 793 791 765 751 752 751 753 756 758 759 761 764 766 768 769 774 780 785 790 795 799 802 804 805 806 808 810 811 812 814 815 816 816 814 813 812 811 811 808 807 805 804 802
790 791 794 791 795 798 796 798 767 757 750 746 749 754 756 757 758 761 764 767 770 775 780 785 790 794 797 801 805 805 805 807 809 810 811 812 814 815 816 815 814 813 811 810 809 808 806 805 804
792 793 800 809 809 834 795 791 771 754 742 736 744 750 754 757 759 761 764 768 771 777 781 785 789 793 795 798 802 805 805 806 808 810 811 811 813 815 816 816 814 813 812 811 809 807 808 806 806
781 790 833 828 848 812 805 795 752 742 735 735 741 748 753 757 759 762 764 768 773 777 781 784 787 791 794 796 799 803 804 806 808 809 809 811 812 814 816 816 815 814 813 811 811 809 809 808 808
785 777 799 801 814 792 805 780 749 738 737 732 737 743 752 757 759 761 763 766 770 775 780 783 786 790 794 795 797 801 803 804 807 808 809 810 810 812 814 815 814 814 813 812 810 810 809 810 810
777 778 773 806 858 818 784 768 742 740 736 737 739 745 749 753 756 759 763 765 768 772 777 781 785 789 792 794 796 799 801 803 805 807 809 810 810 811 813 815 816 814 813 813 812 811 811 810 811
757 761 777 797 807 803 786 773 744 732 733 739 740 743 747 750 753 757 761 763 766 770 775 780 783 786 790 792 794 796 798 801 804 806 808 809 809 810 812 813 816 815 814 814 814 813 813 813 813
764 766 758 763 774 777 796 753 734 720 724 728 734 738 742 746 749 753 758 761 764 768 773 777 781 784 786 789 791 794 797 800 801 803 806 807 808 808 811 812 814 815 815 815 815 816 816 816 815
758 742 744 747 771 795 781 752 727 729 726 727 731 736 740 743 746 750 754 758 762 766 770 774 778 781 784 787 790 791 794 798 800 801 803 804 806 807 809 810 812 815 814 814 815 816 816 818 818